#Datum;Uhrzeit;WR;Pac;DaySum;Status;WR;Pac;DaySum;Status;Pdc1;Udc;Temp;WR;Pac;DaySum;Status;Pdc1;Udc;Temp;WR;Pac;DaySum;Status;Pdc1;Udc;Temp;WR;Pac;DaySum;Status;Pdc1;Pdc2;Udc1;Udc2;Temp;WR;Pac;DaySum;Status;Pdc1;Pdc2;Udc1;Udc2;Temp;WR;Pac;DaySum;Status;Pdc1;Udc;Temp;WR;Pac;DaySum;Status;Pdc1;Udc;Temp;WR;Pac;DaySum;Status;Pdc1;Udc;Temp
19.02.20;23:55:00;1;298;8856;0;2;0;4877;0;0;0;0;3;0;2871;0;0;0;0;4;0;3895;0;0;0;0;5;0;9365;0;0;0;0;0;0;6;0;6524;0;0;0;0;0;0;7;0;5431;0;0;0;0;8;0;5392;0;0;0;0;9;0;2695;0;0;0;0
19.02.20;23:50:00;1;249;8831;0;2;0;4877;0;0;0;0;3;0;2871;0;0;0;0;4;0;3895;0;0;0;0;5;0;9365;0;0;0;0;0;0;6;0;6524;0;0;0;0;0;0;7;0;5431;0;0;0;0;8;0;5392;0;0;0;0;9;0;2695;0;0;0;0
19.02.20;23:45:00;1;279;8810;0;2;0;4877;0;0;0;0;3;0;2871;0;0;0;0;4;0;3895;0;0;0;0;5;0;9365;0;0;0;0;0;0;6;0;6524;0;0;0;0;0;0;7;0;5431;0;0;0;0;8;0;5392;0;0;0;0;9;0;2695;0;0;0;0
19.02.20;23:40:00;1;293;8786;0;2;0;4877;0;0;0;0;3;0;2871;0;0;0;0;4;0;3895;0;0;0;0;5;0;9365;0;0;0;0;0;0;6;0;6524;0;0;0;0;0;0;7;0;5431;0;0;0;0;8;0;5392;0;0;0;0;9;0;2695;0;0;0;0
19.02.20;23:35:00;1;295;8762;0;2;0;4877;0;0;0;0;3;0;2871;0;0;0;0;4;0;3895;0;0;0;0;5;0;9365;0;0;0;0;0;0;6;0;6524;0;0;0;0;0;0;7;0;5431;0;0;0;0;8;0;5392;0;0;0;0;9;0;2695;0;0;0;0
19.02.20;23:30:00;1;249;8737;0;2;0;4877;0;0;0;0;3;0;2871;0;0;0;0;4;0;3895;0;0;0;0;5;0;9365;0;0;0;0;0;0;6;0;6524;0;0;0;0;0;0;7;0;5431;0;0;0;0;8;0;5392;0;0;0;0;9;0;2695;0;0;0;0
19.02.20;23:25:00;1;269;8716;0;2;0;4877;0;0;0;0;3;0;2871;0;0;0;0;4;0;3895;0;0;0;0;5;0;9365;0;0;0;0;0;0;6;0;6524;0;0;0;0;0;0;7;0;5431;0;0;0;0;8;0;5392;0;0;0;0;9;0;2695;0;0;0;0
19.02.20;23:20:00;1;340;8693;0;2;0;4877;0;0;0;0;3;0;2871;0;0;0;0;4;0;3895;0;0;0;0;5;0;9365;0;0;0;0;0;0;6;0;6524;0;0;0;0;0;0;7;0;5431;0;0;0;0;8;0;5392;0;0;0;0;9;0;2695;0;0;0;0
19.02.20;23:15:00;1;257;8670;0;2;0;4877;0;0;0;0;3;0;2871;0;0;0;0;4;0;3895;0;0;0;0;5;0;9365;0;0;0;0;0;0;6;0;6524;0;0;0;0;0;0;7;0;5431;0;0;0;0;8;0;5392;0;0;0;0;9;0;2695;0;0;0;0
19.02.20;23:10:00;1;604;8648;0;2;0;4877;0;0;0;0;3;0;2871;0;0;0;0;4;0;3895;0;0;0;0;5;0;9365;0;0;0;0;0;0;6;0;6524;0;0;0;0;0;0;7;0;5431;0;0;0;0;8;0;5392;0;0;0;0;9;0;2695;0;0;0;0
19.02.20;23:05:00;1;251;8602;0;2;0;4877;0;0;0;0;3;0;2871;0;0;0;0;4;0;3895;0;0;0;0;5;0;9365;0;0;0;0;0;0;6;0;6524;0;0;0;0;0;0;7;0;5431;0;0;0;0;8;0;5392;0;0;0;0;9;0;2695;0;0;0;0
19.02.20;23:00:00;1;267;8581;0;2;0;4877;0;0;0;0;3;0;2871;0;0;0;0;4;0;3895;0;0;0;0;5;0;9365;0;0;0;0;0;0;6;0;6524;0;0;0;0;0;0;7;0;5431;0;0;0;0;8;0;5392;0;0;0;0;9;0;2695;0;0;0;0
19.02.20;22:55:00;1;301;8559;0;2;0;4877;0;0;0;0;3;0;2871;0;0;0;0;4;0;3895;0;0;0;0;5;0;9365;2;0;0;0;0;0;6;0;6524;2;0;0;0;0;0;7;0;5431;0;0;0;0;8;0;5392;0;0;0;0;9;0;2695;0;0;0;0
19.02.20;22:50:00;1;354;8533;0;2;0;4877;0;0;0;0;3;0;2871;0;0;0;0;4;0;3895;0;0;0;0;5;0;9365;2;0;0;0;0;0;6;0;6524;2;0;0;0;0;0;7;0;5431;0;0;0;0;8;0;5392;0;0;0;0;9;0;2695;0;0;0;0
19.02.20;22:45:00;1;338;8503;0;2;0;4877;0;0;0;0;3;0;2871;0;0;0;0;4;0;3895;0;0;0;0;5;0;9365;2;0;0;0;0;0;6;0;6524;2;0;0;0;0;0;7;0;5431;0;0;0;0;8;0;5392;0;0;0;0;9;0;2695;0;0;0;0
19.02.20;22:40:00;1;254;8479;0;2;0;4877;0;0;0;0;3;0;2871;0;0;0;0;4;0;3895;0;0;0;0;5;0;9365;2;0;0;0;0;0;6;0;6524;2;0;0;0;0;0;7;0;5431;0;0;0;0;8;0;5392;0;0;0;0;9;0;2695;0;0;0;0
19.02.20;22:35:00;1;255;8458;0;2;0;4877;0;0;0;0;3;0;2871;0;0;0;0;4;0;3895;0;0;0;0;5;0;9365;2;0;0;0;0;0;6;0;6524;2;0;0;0;0;0;7;0;5431;0;0;0;0;8;0;5392;0;0;0;0;9;0;2695;0;0;0;0
19.02.20;22:30:00;1;253;8437;0;2;0;4877;0;0;0;0;3;0;2871;0;0;0;0;4;0;3895;0;0;0;0;5;0;9365;2;0;0;0;0;0;6;0;6524;2;0;0;0;0;0;7;0;5431;0;0;0;0;8;0;5392;0;0;0;0;9;0;2695;0;0;0;0
19.02.20;22:25:00;1;331;8415;0;2;0;4877;0;0;0;0;3;0;2871;0;0;0;0;4;0;3895;0;0;0;0;5;0;9365;2;0;0;0;0;0;6;0;6524;2;0;0;0;0;0;7;0;5431;0;0;0;0;8;0;5392;0;0;0;0;9;0;2695;0;0;0;0
19.02.20;22:20:00;1;382;8386;0;2;0;4877;0;0;0;0;3;0;2871;0;0;0;0;4;0;3895;0;0;0;0;5;0;9365;2;0;0;0;0;0;6;0;6524;2;0;0;0;0;0;7;0;5431;0;0;0;0;8;0;5392;0;0;0;0;9;0;2695;0;0;0;0
19.02.20;22:15:00;1;568;8352;0;2;0;4877;0;0;0;0;3;0;2871;0;0;0;0;4;0;3895;0;0;0;0;5;0;9365;2;0;0;0;0;0;6;0;6524;2;0;0;0;0;0;7;0;5431;0;0;0;0;8;0;5392;0;0;0;0;9;0;2695;0;0;0;0
19.02.20;22:10:00;1;502;8285;0;2;0;4877;0;0;0;0;3;0;2871;0;0;0;0;4;0;3895;0;0;0;0;5;0;9365;2;0;0;0;0;0;6;0;6524;2;0;0;0;0;0;7;0;5431;0;0;0;0;8;0;5392;0;0;0;0;9;0;2695;0;0;0;0
19.02.20;22:05:00;1;532;8243;0;2;0;4877;0;0;0;0;3;0;2871;0;0;0;0;4;0;3895;0;0;0;0;5;0;9365;2;0;0;0;0;0;6;0;6524;2;0;0;0;0;0;7;0;5431;0;0;0;0;8;0;5392;0;0;0;0;9;0;2695;0;0;0;0
19.02.20;22:00:00;1;537;8198;0;2;0;4877;0;0;0;0;3;0;2871;0;0;0;0;4;0;3895;0;0;0;0;5;0;9365;2;0;0;0;0;0;6;0;6524;2;0;0;0;0;0;7;0;5431;0;0;0;0;8;0;5392;0;0;0;0;9;0;2695;0;0;0;0
19.02.20;21:55:00;1;516;8153;0;2;0;4877;0;0;0;0;3;0;2871;0;0;0;0;4;0;3895;0;0;0;0;5;0;9365;2;0;0;0;0;0;6;0;6524;2;0;0;0;0;0;7;0;5431;0;0;0;0;8;0;5392;0;0;0;0;9;0;2695;0;0;0;0
19.02.20;21:50:00;1;456;8110;0;2;0;4877;0;0;0;0;3;0;2871;0;0;0;0;4;0;3895;0;0;0;0;5;0;9365;2;0;0;0;0;0;6;0;6524;2;0;0;0;0;0;7;0;5431;0;0;0;0;8;0;5392;0;0;0;0;9;0;2695;0;0;0;0
19.02.20;21:45:00;1;475;8071;0;2;0;4877;0;0;0;0;3;0;2871;0;0;0;0;4;0;3895;0;0;0;0;5;0;9365;2;0;0;0;0;0;6;0;6524;2;0;0;0;0;0;7;0;5431;0;0;0;0;8;0;5392;0;0;0;0;9;0;2695;0;0;0;0
19.02.20;21:40:00;1;430;8030;0;2;0;4877;0;0;0;0;3;0;2871;0;0;0;0;4;0;3895;0;0;0;0;5;0;9365;2;0;0;0;0;0;6;0;6524;2;0;0;0;0;0;7;0;5431;0;0;0;0;8;0;5392;0;0;0;0;9;0;2695;0;0;0;0
19.02.20;21:35:00;1;432;7994;0;2;0;4877;0;0;0;0;3;0;2871;0;0;0;0;4;0;3895;0;0;0;0;5;0;9365;2;0;0;0;0;0;6;0;6524;2;0;0;0;0;0;7;0;5431;0;0;0;0;8;0;5392;0;0;0;0;9;0;2695;0;0;0;0
19.02.20;21:30:00;1;431;7958;0;2;0;4877;0;0;0;0;3;0;2871;0;0;0;0;4;0;3895;0;0;0;0;5;0;9365;2;0;0;0;0;0;6;0;6524;2;0;0;0;0;0;7;0;5431;0;0;0;0;8;0;5392;0;0;0;0;9;0;2695;0;0;0;0
19.02.20;21:25:00;1;807;7922;0;2;0;4877;0;0;0;0;3;0;2871;0;0;0;0;4;0;3895;0;0;0;0;5;0;9365;2;0;0;0;0;0;6;0;6524;2;0;0;0;0;0;7;0;5431;0;0;0;0;8;0;5392;0;0;0;0;9;0;2695;0;0;0;0
19.02.20;21:20:00;1;1553;7818;0;2;0;4877;0;0;0;0;3;0;2871;0;0;0;0;4;0;3895;0;0;0;0;5;0;9365;2;0;0;0;0;0;6;0;6524;2;0;0;0;0;0;7;0;5431;0;0;0;0;8;0;5392;0;0;0;0;9;0;2695;0;0;0;0
19.02.20;21:15:00;1;535;7735;0;2;0;4877;0;0;0;0;3;0;2871;0;0;0;0;4;0;3895;0;0;0;0;5;0;9365;2;0;0;0;0;0;6;0;6524;2;0;0;0;0;0;7;0;5431;0;0;0;0;8;0;5392;0;0;0;0;9;0;2695;0;0;0;0
19.02.20;21:10:00;1;527;7689;0;2;0;4877;0;0;0;0;3;0;2871;0;0;0;0;4;0;3895;0;0;0;0;5;0;9365;2;0;0;0;0;0;6;0;6524;2;0;0;0;0;0;7;0;5431;0;0;0;0;8;0;5392;0;0;0;0;9;0;2695;0;0;0;0
19.02.20;21:05:00;1;436;7645;0;2;0;4877;0;0;0;0;3;0;2871;0;0;0;0;4;0;3895;0;0;0;0;5;0;9365;2;0;0;0;0;0;6;0;6524;2;0;0;0;0;0;7;0;5431;0;0;0;0;8;0;5392;0;0;0;0;9;0;2695;0;0;0;0
19.02.20;21:00:00;1;426;7609;0;2;0;4877;0;0;0;0;3;0;2871;0;0;0;0;4;0;3895;0;0;0;0;5;0;9365;2;0;0;0;0;0;6;0;6524;2;0;0;0;0;0;7;0;5431;0;0;0;0;8;0;5392;0;0;0;0;9;0;2695;0;0;0;0
19.02.20;20:55:00;1;424;7573;0;2;0;4877;0;0;0;0;3;0;2871;0;0;0;0;4;0;3895;0;0;0;0;5;0;9365;2;0;0;0;0;0;6;0;6524;2;0;0;0;0;0;7;0;5431;0;0;0;0;8;0;5392;0;0;0;0;9;0;2695;0;0;0;0
19.02.20;20:50:00;1;596;7537;0;2;0;4877;0;0;0;0;3;0;2871;0;0;0;0;4;0;3895;0;0;0;0;5;0;9365;2;0;0;0;0;0;6;0;6524;2;0;0;0;0;0;7;0;5431;0;0;0;0;8;0;5392;0;0;0;0;9;0;2695;0;0;0;0
19.02.20;20:45:00;1;510;7489;0;2;0;4877;0;0;0;0;3;0;2871;0;0;0;0;4;0;3895;0;0;0;0;5;0;9365;2;0;0;0;0;0;6;0;6524;2;0;0;0;0;0;7;0;5431;0;0;0;0;8;0;5392;0;0;0;0;9;0;2695;0;0;0;0
19.02.20;20:40:00;1;665;7447;0;2;0;4877;0;0;0;0;3;0;2871;0;0;0;0;4;0;3895;0;0;0;0;5;0;9365;2;0;0;0;0;0;6;0;6524;2;0;0;0;0;0;7;0;5431;0;0;0;0;8;0;5392;0;0;0;0;9;0;2695;0;0;0;0
19.02.20;20:35:00;1;650;7391;0;2;0;4877;0;0;0;0;3;0;2871;0;0;0;0;4;0;3895;0;0;0;0;5;0;9365;2;0;0;0;0;0;6;0;6524;2;0;0;0;0;0;7;0;5431;0;0;0;0;8;0;5392;0;0;0;0;9;0;2695;0;0;0;0
19.02.20;20:30:00;1;663;7339;0;2;0;4877;0;0;0;0;3;0;2871;0;0;0;0;4;0;3895;0;0;0;0;5;0;9365;2;0;0;0;0;0;6;0;6524;2;0;0;0;0;0;7;0;5431;0;0;0;0;8;0;5392;0;0;0;0;9;0;2695;0;0;0;0
19.02.20;20:25:00;1;698;7283;0;2;0;4877;0;0;0;0;3;0;2871;0;0;0;0;4;0;3895;0;0;0;0;5;0;9365;2;0;0;0;0;0;6;0;6524;2;0;0;0;0;0;7;0;5431;0;0;0;0;8;0;5392;0;0;0;0;9;0;2695;0;0;0;0
19.02.20;20:20:00;1;908;7225;0;2;0;4877;0;0;0;0;3;0;2871;0;0;0;0;4;0;3895;0;0;0;0;5;0;9365;2;0;0;0;0;0;6;0;6524;2;0;0;0;0;0;7;0;5431;0;0;0;0;8;0;5392;0;0;0;0;9;0;2695;0;0;0;0
19.02.20;20:15:00;1;451;7158;0;2;0;4877;0;0;0;0;3;0;2871;0;0;0;0;4;0;3895;0;0;0;0;5;0;9365;2;0;0;0;0;0;6;0;6524;2;0;0;0;0;0;7;0;5431;0;0;0;0;8;0;5392;0;0;0;0;9;0;2695;0;0;0;0
19.02.20;20:10:00;1;447;7121;0;2;0;4877;0;0;0;0;3;0;2871;0;0;0;0;4;0;3895;0;0;0;0;5;0;9365;2;0;0;0;0;0;6;0;6524;2;0;0;0;0;0;7;0;5431;0;0;0;0;8;0;5392;0;0;0;0;9;0;2695;0;0;0;0
19.02.20;20:05:00;1;563;7082;0;2;0;4877;0;0;0;0;3;0;2871;0;0;0;0;4;0;3895;0;0;0;0;5;0;9365;2;0;0;0;0;0;6;0;6524;2;0;0;0;0;0;7;0;5431;0;0;0;0;8;0;5392;0;0;0;0;9;0;2695;0;0;0;0
19.02.20;20:00:00;1;548;7035;0;2;0;4877;0;0;0;0;3;0;2871;0;0;0;0;4;0;3895;0;0;0;0;5;0;9365;2;0;0;0;0;0;6;0;6524;2;0;0;0;0;0;7;0;5431;0;0;0;0;8;0;5392;0;0;0;0;9;0;2695;0;0;0;0
19.02.20;19:55:00;1;640;6986;0;2;0;4877;0;0;0;0;3;0;2871;0;0;0;0;4;0;3895;0;0;0;0;5;0;9365;2;0;0;0;0;0;6;0;6524;2;0;0;0;0;0;7;0;5431;0;0;0;0;8;0;5392;0;0;0;0;9;0;2695;0;0;0;0
19.02.20;19:50:00;1;510;6942;0;2;0;4877;0;0;0;0;3;0;2871;0;0;0;0;4;0;3895;0;0;0;0;5;0;9365;2;0;0;0;0;0;6;0;6524;2;0;0;0;0;0;7;0;5431;0;0;0;0;8;0;5392;0;0;0;0;9;0;2695;0;0;0;0
19.02.20;19:45:00;1;521;6900;0;2;0;4877;0;0;0;0;3;0;2871;0;0;0;0;4;0;3895;0;0;0;0;5;0;9365;2;0;0;0;0;0;6;0;6524;2;0;0;0;0;0;7;0;5431;0;0;0;0;8;0;5392;0;0;0;0;9;0;2695;0;0;0;0
19.02.20;19:40:00;1;554;6855;0;2;0;4877;0;0;0;0;3;0;2871;0;0;0;0;4;0;3895;0;0;0;0;5;0;9365;2;0;0;0;0;0;6;0;6524;2;0;0;0;0;0;7;0;5431;0;0;0;0;8;0;5392;0;0;0;0;9;0;2695;0;0;0;0
19.02.20;19:35:00;1;580;6809;0;2;0;4877;0;0;0;0;3;0;2871;0;0;0;0;4;0;3895;0;0;0;0;5;0;9365;2;0;0;0;0;0;6;0;6524;2;0;0;0;0;0;7;0;5431;0;0;0;0;8;0;5392;0;0;0;0;9;0;2695;0;0;0;0
19.02.20;19:30:00;1;491;6760;0;2;0;4877;0;0;0;0;3;0;2871;0;0;0;0;4;0;3895;0;0;0;0;5;0;9365;2;0;0;0;0;0;6;0;6524;2;0;0;0;0;0;7;0;5431;0;0;0;0;8;0;5392;0;0;0;0;9;0;2695;0;0;0;0
19.02.20;19:25:00;1;447;6718;0;2;0;4877;0;0;0;0;3;0;2871;0;0;0;0;4;0;3895;0;0;0;0;5;0;9365;2;0;0;0;0;0;6;0;6524;2;0;0;0;0;0;7;0;5431;0;0;0;0;8;0;5392;0;0;0;0;9;0;2695;0;0;0;0
19.02.20;19:20:00;1;443;6681;0;2;0;4877;0;0;0;0;3;0;2871;0;0;0;0;4;0;3895;0;0;0;0;5;0;9365;2;0;0;0;0;0;6;0;6524;2;0;0;0;0;0;7;0;5431;0;0;0;0;8;0;5392;0;0;0;0;9;0;2695;0;0;0;0
19.02.20;19:15:00;1;445;6644;0;2;0;4877;0;0;0;0;3;0;2871;0;0;0;0;4;0;3895;0;0;0;0;5;0;9365;2;0;0;0;0;0;6;0;6524;2;0;0;0;0;0;7;0;5431;0;0;0;0;8;0;5392;0;0;0;0;9;0;2695;0;0;0;0
19.02.20;19:10:00;1;782;6591;0;2;0;4877;0;0;0;0;3;0;2871;0;0;0;0;4;0;3895;0;0;0;0;5;0;9365;2;0;0;0;0;0;6;0;6524;2;0;0;0;0;0;7;0;5431;0;0;0;0;8;0;5392;0;0;0;0;9;0;2695;0;0;0;0
19.02.20;19:05:00;1;446;6547;0;2;0;4877;0;0;0;0;3;0;2871;0;0;0;0;4;0;3895;0;0;0;0;5;0;9365;2;0;0;0;0;0;6;0;6524;2;0;0;0;0;0;7;0;5431;0;0;0;0;8;0;5392;0;0;0;0;9;0;2695;0;0;0;0
19.02.20;19:00:00;1;639;6509;0;2;0;4877;0;0;0;0;3;0;2871;0;0;0;0;4;0;3895;0;0;0;0;5;0;9365;2;0;0;0;0;0;6;0;6524;2;0;0;0;0;0;7;0;5431;0;0;0;0;8;0;5392;0;0;0;0;9;0;2695;0;0;0;0
19.02.20;18:55:00;1;513;6461;0;2;0;4877;0;0;0;0;3;0;2871;0;0;0;0;4;0;3895;0;0;0;0;5;0;9365;2;0;0;0;0;0;6;0;6524;2;0;0;0;0;0;7;0;5431;0;0;0;0;8;0;5392;0;0;0;0;9;0;2695;0;0;0;0
19.02.20;18:50:00;1;616;6416;0;2;0;4877;0;0;0;0;3;0;2871;0;0;0;0;4;0;3895;0;0;0;0;5;0;9365;2;0;0;0;0;0;6;0;6524;2;0;0;0;0;0;7;0;5431;0;0;0;0;8;0;5392;0;0;0;0;9;0;2695;0;0;0;0
19.02.20;18:45:00;1;645;6364;0;2;0;4877;0;0;0;0;3;0;2871;0;0;0;0;4;0;3895;0;0;0;0;5;0;9365;2;0;0;0;0;0;6;0;6524;2;0;0;0;0;0;7;0;5431;0;0;0;0;8;0;5392;0;0;0;0;9;0;2695;0;0;0;0
19.02.20;18:40:00;1;607;6310;0;2;0;4877;0;0;0;0;3;0;2871;0;0;0;0;4;0;3895;0;0;0;0;5;0;9365;2;0;0;0;0;0;6;0;6524;2;0;0;0;0;0;7;0;5431;0;0;0;0;8;0;5392;0;0;0;0;9;0;2695;0;0;0;0
19.02.20;18:35:00;1;686;6260;0;2;0;4877;0;0;0;0;3;0;2871;0;0;0;0;4;0;3895;0;0;0;0;5;0;9365;2;0;0;0;0;0;6;0;6524;2;0;0;0;0;0;7;0;5431;0;0;0;0;8;0;5392;0;0;0;0;9;0;2695;0;0;0;0
19.02.20;18:30:00;1;999;6197;0;2;0;4877;0;0;0;0;3;0;2871;0;0;0;0;4;0;3895;0;0;0;0;5;0;9365;2;0;0;0;0;0;6;0;6524;2;0;0;0;0;0;7;0;5431;0;0;0;0;8;0;5392;0;0;0;0;9;0;2695;0;0;0;0
19.02.20;18:25:00;1;1396;6109;0;2;0;4877;0;0;0;0;3;0;2871;0;0;0;0;4;0;3895;0;0;0;0;5;0;9365;2;0;0;0;0;0;6;0;6524;2;0;0;0;0;0;7;0;5431;0;0;0;0;8;0;5392;0;0;0;0;9;0;2695;0;0;0;0
19.02.20;18:20:00;1;1055;5990;0;2;0;4877;0;0;0;0;3;0;2871;0;0;0;0;4;0;3895;0;0;0;0;5;0;9365;2;0;0;0;0;0;6;0;6524;2;0;0;0;0;0;7;0;5431;0;0;0;0;8;0;5392;0;0;0;0;9;0;2695;0;0;0;0
19.02.20;18:15:00;1;724;5908;0;2;0;4877;0;0;0;0;3;0;2871;0;0;0;0;4;0;3895;0;0;0;0;5;0;9365;2;0;0;0;0;0;6;0;6524;2;0;0;0;0;0;7;0;5431;0;0;0;0;8;0;5392;0;0;0;0;9;0;2695;0;0;0;0
19.02.20;18:10:00;1;513;5852;0;2;0;4877;0;0;0;0;3;0;2871;0;0;0;0;4;0;3895;0;0;0;0;5;0;9365;2;0;0;0;0;0;6;0;6524;2;0;0;0;0;0;7;0;5431;0;0;0;0;8;0;5392;0;0;0;0;9;0;2695;0;0;0;0
19.02.20;18:05:00;1;543;5810;0;2;0;4877;0;0;0;0;3;0;2871;0;0;0;0;4;0;3895;0;0;0;0;5;0;9365;2;0;0;0;0;0;6;0;6524;2;0;0;0;0;0;7;0;5431;0;0;0;0;8;0;5392;0;0;0;0;9;0;2695;0;0;0;0
19.02.20;18:00:00;1;554;5764;0;2;0;4877;0;0;0;0;3;0;2871;0;0;0;0;4;0;3895;0;0;0;0;5;0;9365;2;0;0;0;0;0;6;0;6524;2;0;0;0;0;0;7;0;5431;0;0;0;0;8;0;5392;0;0;0;0;9;0;2695;0;0;0;0
19.02.20;17:55:00;1;603;5718;0;2;0;4877;0;0;87;5;3;0;2871;0;0;185;11;4;0;3895;0;0;0;0;5;0;9365;2;0;0;0;0;0;6;0;6524;2;0;0;0;0;0;7;0;5431;0;0;0;0;8;0;5392;0;0;0;0;9;0;2695;0;0;0;0
19.02.20;17:50:00;1;511;5666;0;2;0;4877;6;0;312;15;3;0;2871;6;0;367;17;4;0;3895;2;0;78;11;5;0;9365;2;0;0;8;8;3;6;0;6524;0;0;0;0;0;0;7;0;5431;0;0;0;0;8;0;5392;0;0;0;0;9;0;2695;0;0;0;0
19.02.20;17:45:00;1;523;5624;0;2;0;4877;6;0;363;15;3;0;2871;6;2;412;17;4;0;3895;1;0;134;12;5;0;9365;2;0;0;325;324;23;6;0;6524;23;7;2;180;421;21;7;0;5431;0;0;229;12;8;0;5392;0;0;229;12;9;0;2695;2;0;289;11
19.02.20;17:40:00;1;452;5582;0;2;0;4877;6;0;399;16;3;0;2871;6;3;481;18;4;0;3895;1;0;198;12;5;6;9365;1;0;1;407;621;23;6;0;6524;23;9;3;181;554;22;7;0;5431;6;0;366;17;8;0;5392;6;0;395;16;9;0;2695;6;0;417;12
19.02.20;17:35:00;1;455;5544;0;2;2;4877;6;9;403;16;3;2;2871;6;5;504;18;4;0;3895;1;0;223;12;5;26;9364;1;2;0;408;647;23;6;0;6524;23;8;3;182;582;22;7;1;5431;6;2;434;17;8;0;5392;4;1;441;16;9;0;2695;4;1;473;12
19.02.20;17:30:00;1;459;5506;0;2;25;4876;6;44;389;17;3;1;2871;6;6;518;18;4;4;3895;3;4;200;13;5;96;9361;4;25;27;373;593;24;6;28;6524;1;16;9;512;366;23;7;1;5431;6;7;472;17;8;6;5392;3;21;419;17;9;2;2694;3;13;453;12
19.02.20;17:25:00;1;936;5468;0;2;66;4875;4;100;369;17;3;12;2871;3;26;502;18;4;19;3895;3;20;199;13;5;130;9353;4;48;46;373;593;24;6;59;6522;4;34;16;443;213;24;7;29;5431;6;40;421;17;8;13;5391;6;24;450;17;9;4;2694;6;13;502;12
19.02.20;17:20:00;1;489;5405;0;2;243;4869;4;280;369;17;3;117;2869;4;156;482;19;4;175;3893;5;182;222;13;5;169;9342;4;73;60;373;593;24;6;87;6517;4;48;24;443;213;24;7;84;5428;4;122;435;18;8;56;5390;4;89;398;17;9;3;2694;6;7;551;12
19.02.20;17:15:00;1;494;5364;0;2;123;4849;4;160;379;18;3;66;2859;4;104;465;19;4;61;3878;3;64;198;13;5;210;9327;4;98;83;373;593;24;6;99;6509;4;61;31;443;213;24;7;87;5422;4;123;392;18;8;80;5385;4;116;442;17;9;13;2694;6;24;522;12
19.02.20;17:10:00;1;495;5323;0;2;142;4839;4;181;386;18;3;79;2854;4;118;471;19;4;79;3873;3;82;202;14;5;246;9310;4;111;100;373;593;24;6;114;6501;4;76;37;443;213;24;7;108;5415;4;145;431;18;8;101;5378;4;136;436;17;9;6;2693;6;11;565;13
19.02.20;17:05:00;1;596;5282;0;2;205;4827;4;243;371;18;3;116;2847;4;154;510;19;4;145;3867;5;151;230;14;5;304;9289;4;149;118;373;593;24;6;146;6491;4;101;47;443;213;24;7;177;5406;4;217;462;18;8;132;5370;4;173;465;17;9;11;2692;4;17;567;13
19.02.20;17:00:00;1;453;5241;0;2;239;4810;4;279;387;19;3;139;2838;4;182;519;19;4;172;3855;5;179;231;14;5;412;9264;4;199;172;373;593;25;6;202;6479;4;128;68;443;230;24;7;201;5391;4;244;480;18;8;205;5359;4;241;468;17;9;101;2691;4;135;511;14
19.02.20;16:55:00;1;458;5203;0;2;202;4790;4;245;387;19;3;118;2826;4;161;516;19;4;138;3841;5;143;229;14;5;379;9229;4;189;156;383;598;25;6;241;6461;4;100;106;443;457;24;7;174;5375;4;221;465;18;8;179;5342;4;220;467;18;9;93;2683;4;125;492;14
19.02.20;16:50:00;1;508;5165;0;2;526;4773;4;575;380;19;3;273;2816;4;318;508;20;4;335;3829;5;349;233;14;5;629;9196;4;314;261;415;657;25;6;467;6440;4;235;256;527;568;24;7;504;5360;4;562;499;18;8;320;5327;4;366;460;18;9;110;2675;4;144;529;14
19.02.20;16:45:00;1;480;5123;0;2;672;4731;4;728;400;19;3;357;2794;4;408;508;20;4;493;3802;5;514;241;15;5;954;9139;4;480;402;416;683;25;6;673;6400;4;300;309;558;569;24;7;800;5320;4;864;479;18;8;629;5301;4;682;474;18;9;161;2666;4;189;434;11
19.02.20;16:40:00;1;479;5083;0;2;566;4674;4;616;401;20;3;352;2764;4;401;518;20;4;478;3760;5;498;241;15;5;1013;9057;4;530;433;420;688;25;6;796;6340;4;415;421;593;571;24;7;663;5253;4;705;482;18;8;639;5248;4;689;486;18;9;333;2649;4;376;524;14
19.02.20;16:35:00;1;538;5043;0;2;460;4627;4;507;395;20;3;276;2735;4;323;492;20;4;370;3720;5;385;236;15;5;849;8976;4;434;363;418;691;25;6;675;6278;4;343;339;599;560;24;7;540;5198;4;589;470;18;8;507;5195;4;552;479;18;9;255;2622;4;294;537;14
19.02.20;16:30:00;1;592;4998;0;2;2112;4588;4;2227;419;20;3;1186;2711;4;1262;446;20;4;1271;3689;5;1324;243;14;5;2308;8892;4;1235;996;438;726;25;6;1611;6218;4;985;677;623;403;24;7;2829;5152;4;2977;499;18;8;2508;5152;4;2624;465;17;9;417;2600;4;467;572;14
19.02.20;16:25:00;1;640;4948;0;2;1123;4417;4;1194;403;18;3;649;2616;4;712;513;19;4;871;3586;5;908;247;14;5;1690;8682;4;890;728;440;714;25;6;950;6086;4;715;283;591;220;24;7;1679;4918;4;1766;457;18;8;1714;4948;4;1803;470;17;9;420;2565;4;466;513;14
19.02.20;16:20:00;1;619;4894;0;2;242;4316;4;280;383;18;3;146;2558;4;186;514;19;4;172;3509;5;179;227;14;5;415;8548;4;208;176;380;613;25;6;199;6015;4;132;65;443;213;24;7;207;4774;4;239;405;18;8;207;4804;4;244;434;17;9;44;2530;4;51;570;13
19.02.20;16:15:00;1;574;4842;0;2;189;4293;4;228;381;18;3;113;2544;4;154;495;19;4;136;3492;5;142;229;14;5;380;8514;4;187;166;373;593;25;6;183;5999;4;115;60;443;213;24;7;135;4753;4;174;429;18;8;134;4783;4;171;454;17;9;12;2524;4;17;448;11
19.02.20;16:10:00;1;563;4794;0;2;64;4277;4;99;377;18;3;3;2535;6;8;540;19;4;33;3481;3;34;200;14;5;174;8484;4;70;66;373;593;25;6;85;5984;4;65;32;443;213;24;7;21;4742;4;29;463;18;8;21;4772;4;31;469;17;9;0;2522;6;0;564;14
19.02.20;16:05:00;1;1080;4747;0;2;91;4272;4;125;371;19;3;31;2534;6;52;493;19;4;50;3478;3;52;200;14;5;233;8469;4;107;95;373;593;25;6;111;5977;4;81;40;443;213;24;7;68;4740;4;98;431;18;8;59;4770;6;88;445;18;9;3;2522;3;7;549;14
19.02.20;16:00:00;1;571;4674;0;2;63;4264;4;100;371;19;3;4;2532;6;9;533;19;4;33;3474;3;34;200;15;5;179;8449;4;74;68;373;593;25;6;93;5967;4;74;42;443;230;24;7;16;4734;4;22;395;15;8;37;4765;4;54;435;18;9;2;2522;6;6;538;15
19.02.20;15:55:00;1;626;4626;0;2;105;4258;4;142;387;20;3;34;2531;6;51;544;19;4;71;3471;3;74;207;15;5;273;8434;4;125;109;379;599;25;6;183;5959;4;92;101;490;456;24;7;92;4731;6;128;481;19;8;98;4761;6;124;477;19;9;36;2522;6;50;550;15
19.02.20;15:50:00;1;468;4573;0;2;482;4249;4;535;409;20;3;299;2528;4;348;521;20;4;407;3465;5;424;238;15;5;927;8407;4;470;396;415;684;26;6;694;5940;4;349;351;594;572;24;7;581;4723;4;641;487;19;8;399;4753;4;433;322;12;9;313;2518;4;356;528;16
19.02.20;15:45:00;1;374;4538;0;2;444;4209;4;496;405;21;3;276;2504;4;323;519;20;4;382;3431;5;397;238;15;5;902;8328;4;453;377;420;682;26;6;674;5882;4;331;339;598;574;24;7;469;4674;4;508;382;15;8;589;4709;4;632;481;19;9;312;2493;4;358;535;17
19.02.20;15:40:00;1;360;4506;0;2;799;4172;4;862;408;21;3;484;2481;4;541;515;20;4;631;3399;5;657;244;16;5;1556;8253;4;799;669;425;691;26;6;1130;5826;4;575;574;595;583;25;7;1198;4625;4;1279;495;19;8;1211;4660;4;1288;481;19;9;746;2466;4;805;528;17
19.02.20;15:35:00;1;332;4476;0;2;680;4108;4;739;406;22;3;422;2442;4;476;510;20;4;591;3348;5;615;241;16;5;1345;8132;4;695;579;423;694;26;6;1013;5735;4;524;517;599;576;24;7;807;4530;4;869;474;19;8;800;4563;4;858;475;19;9;428;2407;4;481;530;17
19.02.20;15:30:00;1;297;4451;0;2;1779;4051;4;1886;414;23;3;899;2407;4;964;445;21;4;1175;3298;5;1224;248;16;5;2640;8014;4;1425;1145;433;705;25;6;1897;5647;4;993;964;613;585;24;7;2147;4462;4;2262;497;19;8;2263;4497;4;2380;474;18;9;1144;2372;4;1227;540;18
19.02.20;15:25:00;1;262;4426;0;2;3986;3907;4;4205;427;23;3;2042;2333;4;2149;463;20;4;2427;3202;5;2528;257;15;5;6363;7776;4;3505;2844;446;724;24;6;4836;5472;4;2470;2402;618;602;24;7;4593;4292;4;4818;506;18;8;4608;4317;4;4834;485;18;9;2579;2281;4;2733;557;18
19.02.20;15:20:00;1;254;4404;0;2;2466;3582;4;2600;427;18;3;1256;2168;4;1342;533;19;4;1769;3005;5;1843;257;14;5;4193;7245;4;2292;1859;442;714;24;6;3385;5070;4;1778;1713;613;594;24;7;3748;3929;4;3926;494;17;8;3695;3962;4;3885;505;17;9;1004;2012;0;1071;366;10
19.02.20;15:15:00;1;240;4383;0;2;1629;3366;4;1716;414;17;3;914;2060;4;987;549;19;4;1294;2853;5;1347;254;14;5;2714;6908;4;1466;1193;446;719;24;6;2058;4810;4;1072;1041;624;608;23;7;1960;3606;4;2067;505;17;8;1973;3642;4;2067;488;17;9;1109;1934;4;1187;551;15
19.02.20;15:10:00;1;301;4362;0;2;1214;3238;4;1281;418;16;3;764;1986;4;831;538;18;4;1063;2749;5;1108;253;14;5;2292;6679;4;1216;1012;442;722;24;6;1740;4638;4;905;894;614;598;23;7;1460;3452;4;1543;493;17;8;1482;3484;4;1556;474;17;9;826;1842;4;891;549;14
19.02.20;15:05:00;1;236;4338;0;2;646;3135;4;693;411;16;3;407;1922;4;460;519;18;4;558;2659;5;581;246;14;5;1276;6496;4;652;557;423;705;24;6;985;4498;4;510;504;609;586;23;7;661;3326;4;713;485;17;8;663;3357;4;713;482;17;9;352;1771;4;396;523;14
19.02.20;15:00:00;1;235;4318;0;2;420;3081;4;458;402;16;3;265;1888;4;307;511;18;4;359;2612;5;374;240;14;5;866;6395;4;439;370;419;693;24;6;654;4422;4;342;350;594;574;23;7;498;3271;4;537;481;17;8;494;3302;4;539;479;17;9;263;1742;4;299;531;14
19.02.20;14:55:00;1;235;4299;0;2;356;3046;4;394;403;16;3;214;1866;4;257;521;18;4;296;2582;5;308;233;14;5;751;6325;4;384;323;413;660;24;6;555;4369;4;298;306;597;577;23;7;380;3230;4;420;476;17;8;389;3261;4;420;466;17;9;199;1720;4;234;533;14
19.02.20;14:50:00;1;272;4279;0;2;715;3016;4;768;417;16;3;445;1848;4;501;526;18;4;617;2557;5;642;246;14;5;1430;6260;4;734;617;427;688;24;6;1064;4320;4;546;542;604;578;23;7;792;3197;4;846;486;17;8;789;3227;4;840;487;17;9;420;1703;4;466;537;14
19.02.20;14:45:00;1;281;4256;0;2;1004;2957;4;1062;419;16;3;634;1811;4;695;534;18;4;864;2507;5;899;250;14;5;1913;6136;4;1010;836;439;705;24;6;1441;4228;4;737;722;604;583;23;7;1175;3132;4;1244;493;17;8;1166;3162;4;1230;492;17;9;393;1653;0;426;333;8
19.02.20;14:40:00;1;330;4233;0;2;481;2874;4;521;401;15;3;301;1759;4;347;505;17;4;400;2435;5;417;239;14;5;964;5986;4;485;412;418;692;24;6;735;4114;4;381;383;600;577;23;7;652;3035;4;692;486;17;8;651;3066;4;694;475;17;9;352;1621;4;392;524;14
19.02.20;14:35:00;1;249;4206;0;2;307;2834;4;341;394;15;3;184;1733;4;227;513;17;4;243;2401;5;253;236;14;5;658;5910;4;327;277;404;678;24;6;484;4056;4;238;245;590;565;23;7;318;2980;4;363;479;17;8;312;3012;4;352;486;17;9;168;1592;4;198;522;14
19.02.20;14:30:00;1;234;4185;0;2;447;2808;4;488;410;16;3;278;1718;4;321;521;18;4;386;2381;5;402;241;14;5;980;5854;4;496;421;422;698;24;6;725;4014;4;378;379;596;578;23;7;335;2954;4;369;394;14;8;430;2985;4;469;479;17;9;227;1577;4;259;525;14
19.02.20;14:25:00;1;235;4166;0;2;603;2771;4;649;411;16;3;376;1695;4;421;519;18;4;522;2349;5;543;244;14;5;1231;5771;4;632;530;427;701;24;6;927;3952;4;468;464;612;581;23;7;719;2918;4;759;492;17;8;708;2950;4;755;481;17;9;379;1559;4;420;532;14
19.02.20;14:20:00;1;236;4146;0;2;450;2721;4;492;403;16;3;277;1664;4;324;526;18;4;387;2306;5;403;242;14;5;914;5670;4;466;389;425;684;24;6;696;3876;4;358;358;603;586;23;7;389;2859;4;423;404;14;8;481;2891;4;523;491;17;9;210;1527;4;241;433;11
19.02.20;14:15:00;1;238;4126;0;2;495;2684;4;536;409;16;3;304;1641;4;350;513;18;4;419;2274;5;437;243;14;5;1004;5596;4;513;428;423;680;24;6;740;3820;4;372;376;600;578;23;7;386;2817;4;433;390;13;8;420;2843;0;454;387;13;9;256;1505;4;290;522;14
19.02.20;14:10:00;1;249;4106;0;2;726;2642;4;778;415;16;3;453;1615;4;507;525;18;4;625;2238;5;651;247;14;5;1425;5510;4;730;618;431;694;24;6;1074;3756;4;549;537;607;581;23;7;770;2778;4;813;486;17;8;755;2809;4;806;483;17;9;402;1483;4;446;533;14